Location: Recife
(8.0585°S, 34.8848°W)
Time: 12:14:58
(UTC-03:00)

Injun/Solrad 3 - Pass Details

Date: 22 April 2026
Orbit: 868 x 988 km, 66.8° (Epoch: 12 May)

Event Time Altitude Azimuth Distance (km) Brightness Sun altitude
Rises 18:37:59 0° 210° (SSW) 3,457 11.1 -21.2°
Reaches altitude 10° 18:40:32 10° 215° (SW) 2,515 10.5 -21.8°
Maximum altitude 18:46:06 50° 289° (WNW) 1,101 8.6 -23.1°
Drops below altitude 10° 18:51:43 10° 3° (N) 2,527 10.2 -24.5°
Sets 18:54:17 0° 9° (N) 3,475 10.9 -25.1°
